Regional Weather Roundup
Issued by NWS

Home | Current Version | Previous Version | Graphics & Text | Print | Product List | Glossary On
Versions: 1 2 3 4 5 6 7 8 9 10 11 12 13 14 15 16 17 18 19 20 21 22 23 24 25 26 27 28 29 30 31 32 33 34 35 36 37 38 39 40 41 42 43 44 45 46 47 48 49 50
000
ASUS43 KMKX 291300
RWRWI

WISCONSIN REGIONAL WEATHER ROUNDUP
NATIONAL WEATHER SERVICE MILWAUKEE/SULLIVAN WI
800 AM CDT THU SEP 29 2016

NOTE: "FAIR" INDICATES FEW OR NO CLOUDS BELOW 12,000 FEET WITH NO
SIGNIFICANT WEATHER AND/OR OBSTRUCTIONS TO VISIBILITY.

WIZ001-002-006>008-014>016-023>028-291400-
NORTHWEST WISCONSIN

CITY           SKY/WX    TMP DP  RH WIND       PRES   REMARKS
SUPERIOR ARPT  CLOUDY    54  52  95 NE5       30.49R
ASHLAND        FOG       45  45 100 E10       30.49R VSB 1/4
HAYWARD        CLOUDY    52  49  89 NE7       30.47R
SIREN          CLOUDY    40  40  98 CALM      30.48R FOG
CUMBERLAND     CLOUDY    46  46 100 NE7       30.45S FOG
RICE LAKE      PTCLDY    46  44  95 N3        30.47R
CHETEK         NOT AVBL
LADYSMITH      MOCLDY    48  47  97 NE5       30.46R
EAU CLAIRE     PTCLDY    49  48  97 NE3       30.43R
MENOMONIE      PTCLDY    49  48  97 N8        30.44R
NEW RICHMOND   CLEAR     45  45 100 CALM      30.46R FOG
OSCEOLA        FOG       43  43 100 CALM      30.49R VSB 1/2
$$

WIZ003>005-009-010-017-018-291400-
NORTH CENTRAL WISCONSIN

CITY           SKY/WX    TMP DP  RH WIND       PRES   REMARKS
MANITOWISH WTR NOT AVBL
ARBOR VITAE    CLOUDY    52  50  94 NE5       30.45R
WOODRUFF       CLOUDY    52  50  94 NE5       30.45R
RHINELANDER    CLOUDY    49  49 100 VRB6      30.44R
EAGLE RIVER    CLOUDY    49  49 100 N9        30.44R
LAND O LAKES   CLOUDY    51  50  99 N8        30.47R
PHILLIPS       CLOUDY    47  47 100 NE7       30.45R
TOMAHAWK       CLOUDY    47  47  97 N5        30.44R
MEDFORD        CLOUDY   N/A N/A N/A N8        30.41R
MERRILL        MOSUNNY   47  47 100 NE6       30.41R
$$

WIZ029-030-035-036-043>047-291400-
CENTRAL WISCONSIN

CITY           SKY/WX    TMP DP  RH WIND       PRES   REMARKS
WAUSAU         SUNNY     49  46  90 N6        30.38S
MOSINEE        NOT AVBL
MARSHFIELD     SUNNY     51  46  83 NE9       30.38R
STEVENS POINT  SUNNY     46  46  99 N5        30.38R
WAUPACA        SUNNY     52  51  97 N5        30.36R
WAUTOMA        SUNNY     53  49  86 NE10G16   30.35R
WISC RAPIDS    SUNNY     51  48  89 N12       30.38R
CAMP DOUGLAS   NOT AVBL
$$

WIZ011>013-019>022-031-037>040-048>050-291400-
NORTHEAST WISCONSIN

CITY           SKY/WX    TMP DP  RH WIND       PRES   REMARKS
ANTIGO         PTSUNNY   47  47 100 N5        30.40R
SHAWANO        SUNNY     54  50  86 N6        30.37R
OCONTO         NOT AVBL
STURGEON BAY   SUNNY     59  56  89 N10       30.35R
GREEN BAY      CLOUDY    54  53  97 N16       30.33R
MANITOWOC      PTSUNNY   57  55  94 MISG      30.30R
APPLETON       PTSUNNY   52  52 100 N10       30.32R
CLINTONVILLE   SUNNY     52  48  87 N8        30.36R
OSHKOSH        CLOUDY    55  52  89 N14       30.32R
$$

WIZ032>034-041-042-053>061-291400-
SOUTHWEST WISCONSIN

CITY           SKY/WX    TMP DP  RH WIND       PRES   REMARKS
LA CROSSE      CLEAR     53  50  89 NW9       30.39R
SPARTA         SUNNY     45  45 100 CALM      30.39R
VIROQUA        SUNNY     48  48 100 N6        30.36R
BOSCOBEL       SUNNY     52  49  89 NE3       30.35R
PRAIRIE DU CHI CLEAR     51  48  89 NW7       30.34S
PLATTEVILLE    SUNNY     51  51 100 N14       30.30R
$$

WIZ056-057-062-063-064-067-068-291400-
SOUTH CENTRAL WISCONSIN

CITY           SKY/WX    TMP DP  RH WIND       PRES   REMARKS
REEDSBURG      NOT AVBL
BARABOO/DELLS  SUNNY     48  47  95 N5        30.33R
LONE ROCK      NOT AVBL
MINERAL POINT  SUNNY     52  50  93 N10       30.30R
MADISON        CLOUDY    52  50  93 N15G21    30.30R
MIDDLETON      CLOUDY    53  53  99 CALM      30.31R
WATERTOWN      CLOUDY    55  55 100 N12G17    30.26R
MONROE         CLOUDY    52  50  93 N10       30.26R
JANESVILLE     PTSUNNY   57  55  94 N9G16     30.24R
$$

WIZ051-052-058>065-066-070>072-291400-
SOUTHEAST WISCONSIN

CITY           SKY/WX    TMP DP  RH WIND       PRES   REMARKS
MILWAUKEE      MOSUNNY   60  56  86 N20G28    30.22R
WAUKESHA       PTSUNNY   57  54  88 N12G25    30.24S
MILWAUKEE/TIMM PTSUNNY   59  54  82 N20G25    30.23R
RACINE         PTSUNNY   58  55  90 N18G26    30.21S
BURLINGTON     CLOUDY    58  53  85 N13G18    30.21R
KENOSHA        MOSUNNY   59  55  87 N16G24    30.20R
FOND DU LAC    CLOUDY    57  54  89 N14       30.31R
SHEBOYGAN      SUNNY     59  55  87 N13       30.28R
WEST BEND      CLOUDY    55  54  94 NE13G18   30.26R
JUNEAU         CLOUDY    55  53  93 N13       30.29R
$$

LSZ147-162-291400-
LAKE SUPERIOR

STATION/POSITION TIME  TEMP    WIND        PRES    WAVE
                       AIR SEA DIR/SP/G            HT/PER
                 (UTC) (F)     (DEG/KT/KT) (MB)    (FT/S)
W MID LAKE BUOY  1150   55 54   30/ 10/ 12 1032.0R   2/ 3
DEVILS ISLAND    1200   53      30/ 10/ 11 1032.7R
SAXON HARBOR     1200   56      40/ 13/ 15 1031.5R
$$

LMZ867-665-643>646-291400-
LAKE MICHIGAN

STATION/POSITION TIME  TEMP    WIND        PRES    WAVE
                       AIR SEA DIR/SP/G            HT/PER
                 (UTC) (F)     (DEG/KT/KT) (MB)    (FT/S)
CHAMBERS ISLAND  1200   59     350/ 20/ 23 1026.8R
N MID LAKE BUOY  1150   62 66   20/ 17/ 21 1026.2R   3/ 5
NORTHPORT PIER   1200   60      20/ 11/ 15 1027.4R
SISTER BAY       1123   58      20/  9/ 12   N/A
KEWAUNEE LAKESHO 1200   57     360/  8/ 14 1025.4R
SHEBOYGAN LAKESH 1200   58      10/ 21/ 23 1024.4R
PORT WASHINGTON  1200   60      10/  8/ 16 1024.7R
ATWATER BUOY     1200   56 53   20/ 21/ 27 1022.6R
MILWAUKEE LAKESH 1210   58     340/ 20/ 23   N/A
S MID LAKE BUOY  1150   64 69   60/ 25/ 29 1019.7R   7/ 7
KENOSHA   LAKESH 1200   58     360/ 20/ 23 1021.3R
$$

TC  - TEMPERATURE IN CELSIUS
VSB - VISIBILITY IN STATUTE MILES
WCI - WIND CHILL INDEX
HX  - HEAT INDEX





USA.gov is the U.S. government's official web portal to all federal, state and local government web resources and services.